<?xml version="1.0"?>
<gpx xmlns="http://www.topografix.com/GPX/1/1" xmlns:xsi="http://www.w3.org/2001/XMLSchema-instance" version="1.1" creator="GPX RubyGem 1.0.0 -- http://dougfales.github.io/gpx/" xsi:schemaLocation="http://www.topografix.com/GPX/1/1 http://www.topografix.com/GPX/1/1/gpx.xsd">
  <metadata>
    <name/>
    <time>2026-05-08T21:58:37+00:00</time>
    <bound minlat="90.0" minlon="180.0" maxlat="-90.0" maxlon="-180.0"/>
  </metadata>
  <trk>
    <name/>
    <trkseg>
      <trkpt lat="42.877798" lon="-1.749258">
        <time>1970-01-01T00:00:00+00:00</time>
        <ele>535.0</ele>
      </trkpt>
      <trkpt lat="42.877804" lon="-1.749176">
        <time>1970-01-01T00:00:00+00:00</time>
        <ele>536.0</ele>
      </trkpt>
      <trkpt lat="42.877764" lon="-1.748976">
        <time>1970-01-01T00:00:00+00:00</time>
        <ele>537.0</ele>
      </trkpt>
      <trkpt lat="42.877748" lon="-1.74886">
        <time>1970-01-01T00:00:00+00:00</time>
        <ele>538.0</ele>
      </trkpt>
      <trkpt lat="42.87777" lon="-1.748721">
        <time>1970-01-01T00:00:00+00:00</time>
        <ele>540.0</ele>
      </trkpt>
      <trkpt lat="42.877817" lon="-1.748613">
        <time>1970-01-01T00:00:00+00:00</time>
        <ele>542.0</ele>
      </trkpt>
      <trkpt lat="42.877869" lon="-1.748422">
        <time>1970-01-01T00:00:00+00:00</time>
        <ele>545.0</ele>
      </trkpt>
      <trkpt lat="42.877949" lon="-1.748559">
        <time>1970-01-01T00:00:00+00:00</time>
        <ele>545.0</ele>
      </trkpt>
      <trkpt lat="42.877976" lon="-1.748557">
        <time>1970-01-01T00:00:00+00:00</time>
        <ele>546.0</ele>
      </trkpt>
      <trkpt lat="42.878022" lon="-1.748499">
        <time>1970-01-01T00:00:00+00:00</time>
        <ele>548.0</ele>
      </trkpt>
      <trkpt lat="42.878047" lon="-1.748443">
        <time>1970-01-01T00:00:00+00:00</time>
        <ele>550.0</ele>
      </trkpt>
      <trkpt lat="42.878028" lon="-1.748299">
        <time>1970-01-01T00:00:00+00:00</time>
        <ele>551.0</ele>
      </trkpt>
      <trkpt lat="42.87807" lon="-1.748295">
        <time>1970-01-01T00:00:00+00:00</time>
        <ele>553.0</ele>
      </trkpt>
      <trkpt lat="42.878124" lon="-1.748253">
        <time>1970-01-01T00:00:00+00:00</time>
        <ele>556.0</ele>
      </trkpt>
      <trkpt lat="42.878124" lon="-1.748213">
        <time>1970-01-01T00:00:00+00:00</time>
        <ele>557.0</ele>
      </trkpt>
      <trkpt lat="42.878064" lon="-1.748135">
        <time>1970-01-01T00:00:00+00:00</time>
        <ele>555.0</ele>
      </trkpt>
      <trkpt lat="42.878065" lon="-1.748103">
        <time>1970-01-01T00:00:00+00:00</time>
        <ele>556.0</ele>
      </trkpt>
      <trkpt lat="42.878042" lon="-1.748056">
        <time>1970-01-01T00:00:00+00:00</time>
        <ele>555.0</ele>
      </trkpt>
      <trkpt lat="42.878215" lon="-1.7482">
        <time>1970-01-01T00:00:00+00:00</time>
        <ele>560.0</ele>
      </trkpt>
      <trkpt lat="42.878222" lon="-1.748165">
        <time>1970-01-01T00:00:00+00:00</time>
        <ele>560.0</ele>
      </trkpt>
      <trkpt lat="42.878009" lon="-1.747777">
        <time>1970-01-01T00:00:00+00:00</time>
        <ele>555.0</ele>
      </trkpt>
      <trkpt lat="42.877981" lon="-1.747666">
        <time>1970-01-01T00:00:00+00:00</time>
        <ele>555.0</ele>
      </trkpt>
      <trkpt lat="42.877956" lon="-1.747527">
        <time>1970-01-01T00:00:00+00:00</time>
        <ele>554.0</ele>
      </trkpt>
      <trkpt lat="42.877982" lon="-1.747116">
        <time>1970-01-01T00:00:00+00:00</time>
        <ele>557.0</ele>
      </trkpt>
      <trkpt lat="42.878143" lon="-1.747245">
        <time>1970-01-01T00:00:00+00:00</time>
        <ele>560.0</ele>
      </trkpt>
      <trkpt lat="42.878237" lon="-1.747591">
        <time>1970-01-01T00:00:00+00:00</time>
        <ele>563.0</ele>
      </trkpt>
      <trkpt lat="42.878273" lon="-1.747654">
        <time>1970-01-01T00:00:00+00:00</time>
        <ele>564.0</ele>
      </trkpt>
      <trkpt lat="42.878402" lon="-1.747779">
        <time>1970-01-01T00:00:00+00:00</time>
        <ele>567.0</ele>
      </trkpt>
      <trkpt lat="42.878592" lon="-1.748189">
        <time>1970-01-01T00:00:00+00:00</time>
        <ele>567.0</ele>
      </trkpt>
      <trkpt lat="42.878648" lon="-1.748272">
        <time>1970-01-01T00:00:00+00:00</time>
        <ele>566.0</ele>
      </trkpt>
      <trkpt lat="42.879221" lon="-1.748725">
        <time>1970-01-01T00:00:00+00:00</time>
        <ele>572.0</ele>
      </trkpt>
      <trkpt lat="42.879417" lon="-1.748932">
        <time>1970-01-01T00:00:00+00:00</time>
        <ele>575.0</ele>
      </trkpt>
      <trkpt lat="42.879524" lon="-1.749144">
        <time>1970-01-01T00:00:00+00:00</time>
        <ele>575.0</ele>
      </trkpt>
      <trkpt lat="42.879571" lon="-1.749279">
        <time>1970-01-01T00:00:00+00:00</time>
        <ele>575.0</ele>
      </trkpt>
      <trkpt lat="42.879576" lon="-1.749362">
        <time>1970-01-01T00:00:00+00:00</time>
        <ele>575.0</ele>
      </trkpt>
      <trkpt lat="42.880315" lon="-1.749827">
        <time>1970-01-01T00:00:00+00:00</time>
        <ele>596.0</ele>
      </trkpt>
      <trkpt lat="42.880468" lon="-1.750081">
        <time>1970-01-01T00:00:00+00:00</time>
        <ele>592.0</ele>
      </trkpt>
      <trkpt lat="42.880668" lon="-1.750341">
        <time>1970-01-01T00:00:00+00:00</time>
        <ele>597.0</ele>
      </trkpt>
      <trkpt lat="42.880723" lon="-1.750372">
        <time>1970-01-01T00:00:00+00:00</time>
        <ele>599.0</ele>
      </trkpt>
      <trkpt lat="42.88143" lon="-1.750541">
        <time>1970-01-01T00:00:00+00:00</time>
        <ele>612.0</ele>
      </trkpt>
      <trkpt lat="42.882268" lon="-1.750543">
        <time>1970-01-01T00:00:00+00:00</time>
        <ele>617.0</ele>
      </trkpt>
      <trkpt lat="42.882577" lon="-1.750617">
        <time>1970-01-01T00:00:00+00:00</time>
        <ele>615.0</ele>
      </trkpt>
      <trkpt lat="42.882688" lon="-1.750584">
        <time>1970-01-01T00:00:00+00:00</time>
        <ele>616.0</ele>
      </trkpt>
      <trkpt lat="42.882715" lon="-1.75055">
        <time>1970-01-01T00:00:00+00:00</time>
        <ele>615.0</ele>
      </trkpt>
      <trkpt lat="42.882726" lon="-1.750471">
        <time>1970-01-01T00:00:00+00:00</time>
        <ele>615.0</ele>
      </trkpt>
      <trkpt lat="42.882698" lon="-1.750319">
        <time>1970-01-01T00:00:00+00:00</time>
        <ele>616.0</ele>
      </trkpt>
      <trkpt lat="42.882591" lon="-1.750045">
        <time>1970-01-01T00:00:00+00:00</time>
        <ele>619.0</ele>
      </trkpt>
      <trkpt lat="42.882479" lon="-1.749597">
        <time>1970-01-01T00:00:00+00:00</time>
        <ele>614.0</ele>
      </trkpt>
      <trkpt lat="42.882387" lon="-1.749299">
        <time>1970-01-01T00:00:00+00:00</time>
        <ele>614.0</ele>
      </trkpt>
      <trkpt lat="42.882296" lon="-1.749027">
        <time>1970-01-01T00:00:00+00:00</time>
        <ele>611.0</ele>
      </trkpt>
      <trkpt lat="42.882089" lon="-1.748583">
        <time>1970-01-01T00:00:00+00:00</time>
        <ele>609.0</ele>
      </trkpt>
      <trkpt lat="42.881893" lon="-1.748112">
        <time>1970-01-01T00:00:00+00:00</time>
        <ele>603.0</ele>
      </trkpt>
      <trkpt lat="42.881832" lon="-1.747918">
        <time>1970-01-01T00:00:00+00:00</time>
        <ele>603.0</ele>
      </trkpt>
      <trkpt lat="42.881407" lon="-1.746145">
        <time>1970-01-01T00:00:00+00:00</time>
        <ele>611.0</ele>
      </trkpt>
      <trkpt lat="42.881286" lon="-1.745201">
        <time>1970-01-01T00:00:00+00:00</time>
        <ele>618.0</ele>
      </trkpt>
      <trkpt lat="42.881318" lon="-1.74482">
        <time>1970-01-01T00:00:00+00:00</time>
        <ele>620.0</ele>
      </trkpt>
      <trkpt lat="42.88139" lon="-1.744473">
        <time>1970-01-01T00:00:00+00:00</time>
        <ele>620.0</ele>
      </trkpt>
      <trkpt lat="42.881432" lon="-1.744401">
        <time>1970-01-01T00:00:00+00:00</time>
        <ele>619.0</ele>
      </trkpt>
      <trkpt lat="42.88148" lon="-1.74436">
        <time>1970-01-01T00:00:00+00:00</time>
        <ele>619.0</ele>
      </trkpt>
      <trkpt lat="42.881654" lon="-1.744302">
        <time>1970-01-01T00:00:00+00:00</time>
        <ele>618.0</ele>
      </trkpt>
      <trkpt lat="42.881773" lon="-1.744181">
        <time>1970-01-01T00:00:00+00:00</time>
        <ele>617.0</ele>
      </trkpt>
      <trkpt lat="42.881824" lon="-1.744088">
        <time>1970-01-01T00:00:00+00:00</time>
        <ele>616.0</ele>
      </trkpt>
      <trkpt lat="42.882087" lon="-1.743396">
        <time>1970-01-01T00:00:00+00:00</time>
        <ele>611.0</ele>
      </trkpt>
      <trkpt lat="42.882359" lon="-1.742874">
        <time>1970-01-01T00:00:00+00:00</time>
        <ele>613.0</ele>
      </trkpt>
      <trkpt lat="42.882496" lon="-1.742417">
        <time>1970-01-01T00:00:00+00:00</time>
        <ele>619.0</ele>
      </trkpt>
      <trkpt lat="42.882586" lon="-1.742057">
        <time>1970-01-01T00:00:00+00:00</time>
        <ele>624.0</ele>
      </trkpt>
      <trkpt lat="42.882753" lon="-1.741641">
        <time>1970-01-01T00:00:00+00:00</time>
        <ele>633.0</ele>
      </trkpt>
      <trkpt lat="42.883109" lon="-1.741105">
        <time>1970-01-01T00:00:00+00:00</time>
        <ele>650.0</ele>
      </trkpt>
      <trkpt lat="42.883201" lon="-1.741065">
        <time>1970-01-01T00:00:00+00:00</time>
        <ele>652.0</ele>
      </trkpt>
      <trkpt lat="42.883262" lon="-1.741062">
        <time>1970-01-01T00:00:00+00:00</time>
        <ele>653.0</ele>
      </trkpt>
      <trkpt lat="42.883478" lon="-1.740917">
        <time>1970-01-01T00:00:00+00:00</time>
        <ele>658.0</ele>
      </trkpt>
      <trkpt lat="42.883829" lon="-1.740791">
        <time>1970-01-01T00:00:00+00:00</time>
        <ele>660.0</ele>
      </trkpt>
      <trkpt lat="42.883933" lon="-1.740797">
        <time>1970-01-01T00:00:00+00:00</time>
        <ele>659.0</ele>
      </trkpt>
      <trkpt lat="42.884015" lon="-1.740773">
        <time>1970-01-01T00:00:00+00:00</time>
        <ele>658.0</ele>
      </trkpt>
      <trkpt lat="42.884192" lon="-1.740799">
        <time>1970-01-01T00:00:00+00:00</time>
        <ele>656.0</ele>
      </trkpt>
      <trkpt lat="42.884389" lon="-1.740775">
        <time>1970-01-01T00:00:00+00:00</time>
        <ele>656.0</ele>
      </trkpt>
      <trkpt lat="42.884568" lon="-1.740848">
        <time>1970-01-01T00:00:00+00:00</time>
        <ele>657.0</ele>
      </trkpt>
      <trkpt lat="42.884864" lon="-1.740837">
        <time>1970-01-01T00:00:00+00:00</time>
        <ele>665.0</ele>
      </trkpt>
      <trkpt lat="42.884935" lon="-1.74085">
        <time>1970-01-01T00:00:00+00:00</time>
        <ele>667.0</ele>
      </trkpt>
      <trkpt lat="42.885118" lon="-1.740783">
        <time>1970-01-01T00:00:00+00:00</time>
        <ele>673.0</ele>
      </trkpt>
      <trkpt lat="42.885271" lon="-1.740681">
        <time>1970-01-01T00:00:00+00:00</time>
        <ele>682.0</ele>
      </trkpt>
      <trkpt lat="42.885571" lon="-1.740547">
        <time>1970-01-01T00:00:00+00:00</time>
        <ele>696.0</ele>
      </trkpt>
      <trkpt lat="42.885741" lon="-1.740572">
        <time>1970-01-01T00:00:00+00:00</time>
        <ele>703.0</ele>
      </trkpt>
      <trkpt lat="42.885794" lon="-1.740606">
        <time>1970-01-01T00:00:00+00:00</time>
        <ele>706.0</ele>
      </trkpt>
      <trkpt lat="42.885941" lon="-1.74058">
        <time>1970-01-01T00:00:00+00:00</time>
        <ele>712.0</ele>
      </trkpt>
      <trkpt lat="42.886008" lon="-1.740537">
        <time>1970-01-01T00:00:00+00:00</time>
        <ele>713.0</ele>
      </trkpt>
      <trkpt lat="42.886049" lon="-1.740532">
        <time>1970-01-01T00:00:00+00:00</time>
        <ele>715.0</ele>
      </trkpt>
      <trkpt lat="42.886372" lon="-1.740614">
        <time>1970-01-01T00:00:00+00:00</time>
        <ele>729.0</ele>
      </trkpt>
      <trkpt lat="42.886452" lon="-1.740606">
        <time>1970-01-01T00:00:00+00:00</time>
        <ele>732.0</ele>
      </trkpt>
      <trkpt lat="42.886684" lon="-1.740542">
        <time>1970-01-01T00:00:00+00:00</time>
        <ele>739.0</ele>
      </trkpt>
      <trkpt lat="42.886959" lon="-1.740416">
        <time>1970-01-01T00:00:00+00:00</time>
        <ele>752.0</ele>
      </trkpt>
      <trkpt lat="42.887209" lon="-1.740244">
        <time>1970-01-01T00:00:00+00:00</time>
        <ele>756.0</ele>
      </trkpt>
      <trkpt lat="42.887252" lon="-1.740279">
        <time>1970-01-01T00:00:00+00:00</time>
        <ele>757.0</ele>
      </trkpt>
      <trkpt lat="42.887318" lon="-1.74029">
        <time>1970-01-01T00:00:00+00:00</time>
        <ele>757.0</ele>
      </trkpt>
      <trkpt lat="42.887318" lon="-1.74029">
        <time>1970-01-01T00:00:00+00:00</time>
        <ele>757.0</ele>
      </trkpt>
      <trkpt lat="42.887252" lon="-1.740279">
        <time>1970-01-01T00:00:00+00:00</time>
        <ele>757.0</ele>
      </trkpt>
      <trkpt lat="42.887209" lon="-1.740244">
        <time>1970-01-01T00:00:00+00:00</time>
        <ele>756.0</ele>
      </trkpt>
      <trkpt lat="42.886959" lon="-1.740416">
        <time>1970-01-01T00:00:00+00:00</time>
        <ele>752.0</ele>
      </trkpt>
      <trkpt lat="42.886684" lon="-1.740542">
        <time>1970-01-01T00:00:00+00:00</time>
        <ele>739.0</ele>
      </trkpt>
      <trkpt lat="42.886452" lon="-1.740606">
        <time>1970-01-01T00:00:00+00:00</time>
        <ele>732.0</ele>
      </trkpt>
      <trkpt lat="42.886372" lon="-1.740614">
        <time>1970-01-01T00:00:00+00:00</time>
        <ele>729.0</ele>
      </trkpt>
      <trkpt lat="42.886049" lon="-1.740532">
        <time>1970-01-01T00:00:00+00:00</time>
        <ele>715.0</ele>
      </trkpt>
      <trkpt lat="42.886008" lon="-1.740537">
        <time>1970-01-01T00:00:00+00:00</time>
        <ele>713.0</ele>
      </trkpt>
      <trkpt lat="42.885941" lon="-1.74058">
        <time>1970-01-01T00:00:00+00:00</time>
        <ele>712.0</ele>
      </trkpt>
      <trkpt lat="42.885794" lon="-1.740606">
        <time>1970-01-01T00:00:00+00:00</time>
        <ele>706.0</ele>
      </trkpt>
      <trkpt lat="42.885741" lon="-1.740572">
        <time>1970-01-01T00:00:00+00:00</time>
        <ele>703.0</ele>
      </trkpt>
      <trkpt lat="42.885571" lon="-1.740547">
        <time>1970-01-01T00:00:00+00:00</time>
        <ele>696.0</ele>
      </trkpt>
      <trkpt lat="42.885271" lon="-1.740681">
        <time>1970-01-01T00:00:00+00:00</time>
        <ele>682.0</ele>
      </trkpt>
      <trkpt lat="42.885118" lon="-1.740783">
        <time>1970-01-01T00:00:00+00:00</time>
        <ele>673.0</ele>
      </trkpt>
      <trkpt lat="42.884935" lon="-1.74085">
        <time>1970-01-01T00:00:00+00:00</time>
        <ele>667.0</ele>
      </trkpt>
      <trkpt lat="42.884864" lon="-1.740837">
        <time>1970-01-01T00:00:00+00:00</time>
        <ele>665.0</ele>
      </trkpt>
      <trkpt lat="42.884568" lon="-1.740848">
        <time>1970-01-01T00:00:00+00:00</time>
        <ele>657.0</ele>
      </trkpt>
      <trkpt lat="42.884389" lon="-1.740775">
        <time>1970-01-01T00:00:00+00:00</time>
        <ele>656.0</ele>
      </trkpt>
      <trkpt lat="42.884192" lon="-1.740799">
        <time>1970-01-01T00:00:00+00:00</time>
        <ele>656.0</ele>
      </trkpt>
      <trkpt lat="42.884015" lon="-1.740773">
        <time>1970-01-01T00:00:00+00:00</time>
        <ele>658.0</ele>
      </trkpt>
      <trkpt lat="42.883933" lon="-1.740797">
        <time>1970-01-01T00:00:00+00:00</time>
        <ele>659.0</ele>
      </trkpt>
      <trkpt lat="42.883829" lon="-1.740791">
        <time>1970-01-01T00:00:00+00:00</time>
        <ele>660.0</ele>
      </trkpt>
      <trkpt lat="42.883478" lon="-1.740917">
        <time>1970-01-01T00:00:00+00:00</time>
        <ele>658.0</ele>
      </trkpt>
      <trkpt lat="42.883262" lon="-1.741062">
        <time>1970-01-01T00:00:00+00:00</time>
        <ele>653.0</ele>
      </trkpt>
      <trkpt lat="42.883201" lon="-1.741065">
        <time>1970-01-01T00:00:00+00:00</time>
        <ele>652.0</ele>
      </trkpt>
      <trkpt lat="42.883109" lon="-1.741105">
        <time>1970-01-01T00:00:00+00:00</time>
        <ele>650.0</ele>
      </trkpt>
      <trkpt lat="42.882753" lon="-1.741641">
        <time>1970-01-01T00:00:00+00:00</time>
        <ele>633.0</ele>
      </trkpt>
      <trkpt lat="42.882586" lon="-1.742057">
        <time>1970-01-01T00:00:00+00:00</time>
        <ele>624.0</ele>
      </trkpt>
      <trkpt lat="42.882496" lon="-1.742417">
        <time>1970-01-01T00:00:00+00:00</time>
        <ele>619.0</ele>
      </trkpt>
      <trkpt lat="42.882359" lon="-1.742874">
        <time>1970-01-01T00:00:00+00:00</time>
        <ele>613.0</ele>
      </trkpt>
      <trkpt lat="42.882087" lon="-1.743396">
        <time>1970-01-01T00:00:00+00:00</time>
        <ele>611.0</ele>
      </trkpt>
      <trkpt lat="42.881824" lon="-1.744088">
        <time>1970-01-01T00:00:00+00:00</time>
        <ele>616.0</ele>
      </trkpt>
      <trkpt lat="42.881773" lon="-1.744181">
        <time>1970-01-01T00:00:00+00:00</time>
        <ele>617.0</ele>
      </trkpt>
      <trkpt lat="42.881654" lon="-1.744302">
        <time>1970-01-01T00:00:00+00:00</time>
        <ele>618.0</ele>
      </trkpt>
      <trkpt lat="42.88148" lon="-1.74436">
        <time>1970-01-01T00:00:00+00:00</time>
        <ele>619.0</ele>
      </trkpt>
      <trkpt lat="42.881432" lon="-1.744401">
        <time>1970-01-01T00:00:00+00:00</time>
        <ele>619.0</ele>
      </trkpt>
      <trkpt lat="42.88139" lon="-1.744473">
        <time>1970-01-01T00:00:00+00:00</time>
        <ele>620.0</ele>
      </trkpt>
      <trkpt lat="42.881318" lon="-1.74482">
        <time>1970-01-01T00:00:00+00:00</time>
        <ele>620.0</ele>
      </trkpt>
      <trkpt lat="42.881286" lon="-1.745201">
        <time>1970-01-01T00:00:00+00:00</time>
        <ele>618.0</ele>
      </trkpt>
      <trkpt lat="42.881407" lon="-1.746145">
        <time>1970-01-01T00:00:00+00:00</time>
        <ele>611.0</ele>
      </trkpt>
      <trkpt lat="42.881832" lon="-1.747918">
        <time>1970-01-01T00:00:00+00:00</time>
        <ele>603.0</ele>
      </trkpt>
      <trkpt lat="42.881893" lon="-1.748112">
        <time>1970-01-01T00:00:00+00:00</time>
        <ele>603.0</ele>
      </trkpt>
      <trkpt lat="42.882089" lon="-1.748583">
        <time>1970-01-01T00:00:00+00:00</time>
        <ele>609.0</ele>
      </trkpt>
      <trkpt lat="42.882296" lon="-1.749027">
        <time>1970-01-01T00:00:00+00:00</time>
        <ele>611.0</ele>
      </trkpt>
      <trkpt lat="42.882387" lon="-1.749299">
        <time>1970-01-01T00:00:00+00:00</time>
        <ele>614.0</ele>
      </trkpt>
      <trkpt lat="42.882479" lon="-1.749597">
        <time>1970-01-01T00:00:00+00:00</time>
        <ele>614.0</ele>
      </trkpt>
      <trkpt lat="42.882591" lon="-1.750045">
        <time>1970-01-01T00:00:00+00:00</time>
        <ele>619.0</ele>
      </trkpt>
      <trkpt lat="42.882698" lon="-1.750319">
        <time>1970-01-01T00:00:00+00:00</time>
        <ele>616.0</ele>
      </trkpt>
      <trkpt lat="42.882726" lon="-1.750471">
        <time>1970-01-01T00:00:00+00:00</time>
        <ele>615.0</ele>
      </trkpt>
      <trkpt lat="42.882715" lon="-1.75055">
        <time>1970-01-01T00:00:00+00:00</time>
        <ele>615.0</ele>
      </trkpt>
      <trkpt lat="42.882688" lon="-1.750584">
        <time>1970-01-01T00:00:00+00:00</time>
        <ele>616.0</ele>
      </trkpt>
      <trkpt lat="42.882577" lon="-1.750617">
        <time>1970-01-01T00:00:00+00:00</time>
        <ele>615.0</ele>
      </trkpt>
      <trkpt lat="42.882268" lon="-1.750543">
        <time>1970-01-01T00:00:00+00:00</time>
        <ele>617.0</ele>
      </trkpt>
      <trkpt lat="42.88143" lon="-1.750541">
        <time>1970-01-01T00:00:00+00:00</time>
        <ele>612.0</ele>
      </trkpt>
      <trkpt lat="42.880723" lon="-1.750372">
        <time>1970-01-01T00:00:00+00:00</time>
        <ele>599.0</ele>
      </trkpt>
      <trkpt lat="42.880668" lon="-1.750341">
        <time>1970-01-01T00:00:00+00:00</time>
        <ele>597.0</ele>
      </trkpt>
      <trkpt lat="42.880468" lon="-1.750081">
        <time>1970-01-01T00:00:00+00:00</time>
        <ele>592.0</ele>
      </trkpt>
      <trkpt lat="42.880315" lon="-1.749827">
        <time>1970-01-01T00:00:00+00:00</time>
        <ele>596.0</ele>
      </trkpt>
      <trkpt lat="42.879576" lon="-1.749362">
        <time>1970-01-01T00:00:00+00:00</time>
        <ele>575.0</ele>
      </trkpt>
      <trkpt lat="42.879571" lon="-1.749279">
        <time>1970-01-01T00:00:00+00:00</time>
        <ele>575.0</ele>
      </trkpt>
      <trkpt lat="42.879524" lon="-1.749144">
        <time>1970-01-01T00:00:00+00:00</time>
        <ele>575.0</ele>
      </trkpt>
      <trkpt lat="42.879417" lon="-1.748932">
        <time>1970-01-01T00:00:00+00:00</time>
        <ele>575.0</ele>
      </trkpt>
      <trkpt lat="42.879221" lon="-1.748725">
        <time>1970-01-01T00:00:00+00:00</time>
        <ele>572.0</ele>
      </trkpt>
      <trkpt lat="42.878648" lon="-1.748272">
        <time>1970-01-01T00:00:00+00:00</time>
        <ele>566.0</ele>
      </trkpt>
      <trkpt lat="42.878592" lon="-1.748189">
        <time>1970-01-01T00:00:00+00:00</time>
        <ele>567.0</ele>
      </trkpt>
      <trkpt lat="42.878402" lon="-1.747779">
        <time>1970-01-01T00:00:00+00:00</time>
        <ele>567.0</ele>
      </trkpt>
      <trkpt lat="42.878273" lon="-1.747654">
        <time>1970-01-01T00:00:00+00:00</time>
        <ele>564.0</ele>
      </trkpt>
      <trkpt lat="42.878237" lon="-1.747591">
        <time>1970-01-01T00:00:00+00:00</time>
        <ele>563.0</ele>
      </trkpt>
      <trkpt lat="42.878143" lon="-1.747245">
        <time>1970-01-01T00:00:00+00:00</time>
        <ele>560.0</ele>
      </trkpt>
      <trkpt lat="42.877982" lon="-1.747116">
        <time>1970-01-01T00:00:00+00:00</time>
        <ele>557.0</ele>
      </trkpt>
      <trkpt lat="42.877956" lon="-1.747527">
        <time>1970-01-01T00:00:00+00:00</time>
        <ele>554.0</ele>
      </trkpt>
      <trkpt lat="42.877981" lon="-1.747666">
        <time>1970-01-01T00:00:00+00:00</time>
        <ele>555.0</ele>
      </trkpt>
      <trkpt lat="42.878009" lon="-1.747777">
        <time>1970-01-01T00:00:00+00:00</time>
        <ele>555.0</ele>
      </trkpt>
      <trkpt lat="42.878222" lon="-1.748165">
        <time>1970-01-01T00:00:00+00:00</time>
        <ele>560.0</ele>
      </trkpt>
      <trkpt lat="42.878215" lon="-1.7482">
        <time>1970-01-01T00:00:00+00:00</time>
        <ele>560.0</ele>
      </trkpt>
      <trkpt lat="42.878042" lon="-1.748056">
        <time>1970-01-01T00:00:00+00:00</time>
        <ele>555.0</ele>
      </trkpt>
      <trkpt lat="42.878065" lon="-1.748103">
        <time>1970-01-01T00:00:00+00:00</time>
        <ele>556.0</ele>
      </trkpt>
      <trkpt lat="42.878064" lon="-1.748135">
        <time>1970-01-01T00:00:00+00:00</time>
        <ele>555.0</ele>
      </trkpt>
      <trkpt lat="42.878124" lon="-1.748213">
        <time>1970-01-01T00:00:00+00:00</time>
        <ele>557.0</ele>
      </trkpt>
      <trkpt lat="42.878124" lon="-1.748253">
        <time>1970-01-01T00:00:00+00:00</time>
        <ele>556.0</ele>
      </trkpt>
      <trkpt lat="42.87807" lon="-1.748295">
        <time>1970-01-01T00:00:00+00:00</time>
        <ele>553.0</ele>
      </trkpt>
      <trkpt lat="42.878028" lon="-1.748299">
        <time>1970-01-01T00:00:00+00:00</time>
        <ele>551.0</ele>
      </trkpt>
      <trkpt lat="42.878047" lon="-1.748443">
        <time>1970-01-01T00:00:00+00:00</time>
        <ele>550.0</ele>
      </trkpt>
      <trkpt lat="42.878022" lon="-1.748499">
        <time>1970-01-01T00:00:00+00:00</time>
        <ele>548.0</ele>
      </trkpt>
      <trkpt lat="42.877976" lon="-1.748557">
        <time>1970-01-01T00:00:00+00:00</time>
        <ele>546.0</ele>
      </trkpt>
      <trkpt lat="42.877949" lon="-1.748559">
        <time>1970-01-01T00:00:00+00:00</time>
        <ele>545.0</ele>
      </trkpt>
      <trkpt lat="42.877869" lon="-1.748422">
        <time>1970-01-01T00:00:00+00:00</time>
        <ele>545.0</ele>
      </trkpt>
      <trkpt lat="42.877817" lon="-1.748613">
        <time>1970-01-01T00:00:00+00:00</time>
        <ele>542.0</ele>
      </trkpt>
      <trkpt lat="42.87777" lon="-1.748721">
        <time>1970-01-01T00:00:00+00:00</time>
        <ele>540.0</ele>
      </trkpt>
      <trkpt lat="42.877748" lon="-1.74886">
        <time>1970-01-01T00:00:00+00:00</time>
        <ele>538.0</ele>
      </trkpt>
      <trkpt lat="42.877764" lon="-1.748976">
        <time>1970-01-01T00:00:00+00:00</time>
        <ele>537.0</ele>
      </trkpt>
      <trkpt lat="42.877804" lon="-1.749176">
        <time>1970-01-01T00:00:00+00:00</time>
        <ele>536.0</ele>
      </trkpt>
      <trkpt lat="42.877798" lon="-1.749258">
        <time>1970-01-01T00:00:00+00:00</time>
        <ele>535.0</ele>
      </trkpt>
    </trkseg>
  </trk>
</gpx>
